Regional Weather Roundup
Issued by NWS

Home | Current Version | Previous Version | Text Only | Print | Product List | Glossary On
Versions: 1 2 3 4 5 6 7 8 9 10 11 12 13 14 15 16 17 18 19 20 21 22 23 24 25 26 27 28 29 30 31 32 33 34 35 36 37 38 39 40 41 42 43 44 45 46 47 48 49 50
000
ASUS43 KOAX 231910
RWRNE

WEATHER ROUNDUP FOR NEBRASKA
NATIONAL WEATHER SERVICE OMAHA NE
100 PM CST THU NOV 23 2017

NOTES: SATELLITE DATA IS BEING USED TO AUGMENT CLOUD COVER ABOVE
       12000 FEET.
       "FAIR" INDICATES FEW OR NO CLOUDS BELOW 12,000 FEET WITH NO
       SIGNIFICANT WEATHER AND/OR OBSTRUCTIONS TO VISIBILITY.


NEZ001>004-019>022-054>056-232000-
NEBRASKA PANHANDLE

CITY           SKY/WX    TMP DP  RH WIND       PRES   REMARKS
SCOTTSBLUFF    SUNNY     69  38  32 W18       29.98F
ALLIANCE       CLOUDY    69  40  34 W18G26    29.96F
CHADRON        SUNNY     69  38  32 W13       29.91F
GORDON         FAIR      67  39  36 W15       29.91F
KIMBALL        CLOUDY    68  32  26 W25G31    30.05F
SIDNEY         SUNNY     69  37  30 W15       30.03F
$$

NEZ057>060-069>072-079>082-232000-
SOUTHWEST NEBRASKA

CITY           SKY/WX    TMP DP  RH WIND       PRES   REMARKS
NORTH PLATTE   SUNNY     68  43  40 W9        29.96F
IMPERIAL       CLOUDY    69  40  34 W10       30.00F
LEXINGTON      SUNNY     72  40  31 W9        29.97F
MCCOOK         CLOUDY    66  44  45 W9        30.00F
OGALLALA       SUNNY     68  41  37 W9        29.99F
$$

NEZ005>010-023>029-035>040-094-232000-
NORTH CENTRAL NEBRASKA

CITY           SKY/WX    TMP DP  RH WIND       PRES   REMARKS
VALENTINE      CLOUDY    73  40  30 SW21      29.86F
AINSWORTH      SUNNY     71  41  34 SW16G22   29.88F
BROKEN BOW     SUNNY     70  42  36 W9        29.94F
O`NEILL        SUNNY     68  43  40 SW9       29.88F
ORD            SUNNY     71  41  33 SW14      29.91F
THEDFORD       SUNNY     73  41  31 W17       29.92F
$$

NEZ041-046>049-061>064-073>077-083>087-232000-
SOUTH CENTRAL NEBRASKA

CITY           SKY/WX    TMP DP  RH WIND       PRES   REMARKS
GRAND ISLAND   SUNNY     68  43  40 SW12      29.96F
AURORA         SUNNY     69  40  35 SW12      29.96F
HASTINGS       SUNNY     68  40  35 SW8G17    29.97F
HEBRON         SUNNY     71  39  31 SW5       29.97F
HOLDREGE       SUNNY     70  42  36 W10       29.98F
KEARNEY        SUNNY     68  41  37 SW10      29.97
YORK           SUNNY     68  41  37 SW10      29.95F
$$

NEZ011>018-030>034-042>045-232000-
NORTHEAST NEBRASKA

CITY           SKY/WX    TMP DP  RH WIND       PRES   REMARKS
NORFOLK        SUNNY     67  42  40 SW13      29.89F
ALBION         SUNNY     71  43  36 SW12      29.92F
BLAIR          SUNNY     58  37  46 SW5       29.95F
COLUMBUS       SUNNY     64  42  44 SW10      29.94F
FREMONT        CLOUDY    58  36  44 S3        29.96F
TEKAMAH        SUNNY     57  35  43 CALM      29.94F
WAYNE          SUNNY     62  35  37 S9        29.90F
$$

NEZ050>053-065>068-078-088>093-232000-
SOUTHEAST NEBRASKA

CITY           SKY/WX    TMP DP  RH WIND       PRES   REMARKS
LINCOLN        SUNNY     63  39  41 SW3       29.97F
OMAHA EPPLEY   MOSUNNY   56  35  45 E3        29.97F
BEATRICE       SUNNY     65  41  40 SW3       29.97F
FALLS CITY     SUNNY     61  37  41 NW3       29.98F
NEBRASKA CITY  SUNNY     61  38  43 W3        29.98F
PLATTSMOUTH    SUNNY     59  38  45 NW3       29.97F
$$

NEZ044-045-051>053-067-232000-
OMAHA AREA

CITY           SKY/WX    TMP DP  RH WIND       PRES   REMARKS
OMAHA EPPLEY   MOSUNNY   56  35  45 E3        29.97F
BLAIR          SUNNY     58  37  46 SW5       29.95F
FREMONT        CLOUDY    58  36  44 S3        29.96F
MILLARD        SUNNY     60  39  46 CALM      29.97F
OFFUTT AFB     SUNNY     58  36  43 W3        29.97F
PLATTSMOUTH    SUNNY     59  38  45 NW3       29.97F
WAHOO          FAIR      62  37  39 SW3       29.95F
$$



USA.gov is the U.S. government's official web portal to all federal, state and local government web resources and services.